Regional Weather Roundup
Issued by NWS

Home | Current Version | Previous Version | Text Only | Print | Product List | Glossary Off
Versions: 1 2 3 4 5 6 7 8 9 10 11 12 13 14 15 16 17 18 19 20 21 22 23 24 25 26 27 28 29 30 31 32 33 34 35 36 37 38 39 40 41 42 43 44 45 46 47 48 49 50

000
ASUS43 KMKX 292221
RWRWI

WISCONSIN REGIONAL WEATHER ROUNDUP
NATIONAL WEATHER SERVICE MILWAUKEE/SULLIVAN WI
500 PM CDT SAT AUG 29 2015

NOTE: "FAIR" INDICATES FEW OR NO CLOUDS BELOW 12,000 FEET WITH NO
SIGNIFICANT WEATHER AND/OR OBSTRUCTIONS TO VISIBILITY.

WIZ001-002-006>008-014>016-023>028-292300-
NORTHWEST WISCONSIN

CITY           SKY/WX    TMP DP  RH WIND       PRES   REMARKS
SUPERIOR ARPT  PTSUNNY   75  64  67 W7        29.98F
ASHLAND        PTSUNNY   76  65  68 W6        30.00S
HAYWARD        CLOUDY    73  62  68 S7        30.03S
SIREN          PTSUNNY   74  61  63 W6        30.03S
CUMBERLAND     SUNNY     70  61  73 SW5       30.05S
RICE LAKE      MOSUNNY   73  62  70 CALM      30.05S
CHETEK         PTSUNNY  N/A N/A N/A CALM      30.04S
LADYSMITH      SUNNY     74  62  66 S6        30.06S
EAU CLAIRE     SUNNY     71  60  68 SW6       30.04F
MENOMONIE      SUNNY     70  62  74 S3        30.05S
NEW RICHMOND   MOSUNNY   73  60  65 CALM      30.04S
OSCEOLA        PTSUNNY   74  61  65 S5        30.06S
$$

WIZ003>005-009-010-017-018-292300-
NORTH CENTRAL WISCONSIN

CITY           SKY/WX    TMP DP  RH WIND       PRES   REMARKS
MANITOWISH WTR CLOUDY    74  60  60 CALM      30.03F
ARBOR VITAE    MOSUNNY   77  62  59 SW6       30.03F
WOODRUFF       MOSUNNY   77  62  59 SW6       30.03F
RHINELANDER    SUNNY     74  58  57 VRB5      30.06S
EAGLE RIVER    SUNNY     75  55  50 CALM      30.03F
LAND O LAKES   CLOUDY    77  58  51 SW5       30.03F
PHILLIPS       PTSUNNY   74  61  62 S3        30.03S
TOMAHAWK       SUNNY     72  60  65 CALM      30.05F
MEDFORD        MOSUNNY   69  61  77 S3        30.06S
MERRILL        SUNNY     71  62  72 S3        30.06S
$$

WIZ029-030-035-036-043>047-292300-
CENTRAL WISCONSIN

CITY           SKY/WX    TMP DP  RH WIND       PRES   REMARKS
WAUSAU         CLOUDY    68  59  73 S3        30.05S
MOSINEE        CLOUDY    64  61  88 CALM      30.07F
MARSHFIELD     CLOUDY    67  58  72 CALM      30.06F
STEVENS POINT  CLOUDY    63  59  87 CALM      30.07S
WAUPACA        CLOUDY    69  64  82 NW5       30.06R
WAUTOMA        CLOUDY    70  63  78 CALM      30.05S
WISC RAPIDS    NOT AVBL
CAMP DOUGLAS   CLOUDY    70  70 100 E3        30.05S
$$

WIZ011>013-019>022-031-037>040-048>050-292300-
NORTHEAST WISCONSIN

CITY           SKY/WX    TMP DP  RH WIND       PRES   REMARKS
ANTIGO         MOSUNNY   69  59  70 S3        30.07S
SHAWANO        CLOUDY    71  62  74 W3        30.06R
OCONTO         PTSUNNY   69  63  82 CALM      30.04S
STURGEON BAY   CLOUDY    66  61  82 CALM      30.07S
GREEN BAY      CLOUDY    71  63  75 E5        30.04S
MANITOWOC      CLOUDY    67  62  84 MISG      30.05S
APPLETON       CLOUDY    70  59  68 CALM      30.04R
CLINTONVILLE   CLOUDY    68  59  73 NW6       30.05S
OSHKOSH        CLOUDY    69  60  73 CALM      30.04R
$$

WIZ032>034-041-042-053>061-292300-
SOUTHWEST WISCONSIN

CITY           SKY/WX    TMP DP  RH WIND       PRES   REMARKS
LA CROSSE      CLOUDY    72  63  73 CALM      30.04S
SPARTA         CLOUDY    70  59  68 CALM      30.05F
VIROQUA          N/A     69  62  77 NE3       30.06S
BOSCOBEL       CLOUDY    72  62  71 CALM      30.04S
PRAIRIE DU CHI CLOUDY    71  61  71 E5        30.03S
PLATTEVILLE    CLOUDY    71  66  84 NE7       30.03S
$$

WIZ056-057-062-063-064-067-068-292300-
SOUTH CENTRAL WISCONSIN

CITY           SKY/WX    TMP DP  RH WIND       PRES   REMARKS
REEDSBURG      CLOUDY    68  62  80 N5        30.04S
BARABOO/DELLS  CLOUDY    68  61  77 NE3       30.05R
LONE ROCK      CLOUDY    70  63  78 NE7       30.04S
MINERAL POINT  CLOUDY    70  63  78 N6        30.05R
MADISON        CLOUDY    67  62  84 NE5       30.03S
MIDDLETON      CLOUDY    69  65  88 NE3       30.05R
WATERTOWN      CLOUDY    67  67  99 CALM      30.03S
MONROE         CLOUDY    68  63  83 N9        30.03S
JANESVILLE     CLOUDY    72  64  78 N6        30.01S
$$

WIZ051-052-058>065-066-070>072-292300-
SOUTHEAST WISCONSIN

CITY           SKY/WX    TMP DP  RH WIND       PRES   REMARKS
MILWAUKEE      FOG       59  58  96 NE7       30.03S VSB 1/4
WAUKESHA       CLOUDY    63  61  94 NE6       30.04F FOG
MILWAUKEE/TIMM CLOUDY    63  61  94 NE5       30.04F FOG
RACINE         CLOUDY    62  60  93 N7        30.03S FOG
BURLINGTON     CLOUDY    65  63  94 NE6       30.02S FOG
KENOSHA        CLOUDY    66  64  93 NE6       30.02S FOG
FOND DU LAC    CLOUDY    68  62  81 CALM      30.04S
SHEBOYGAN      CLOUDY    66  62  87 SE7       30.04S
WEST BEND      CLOUDY    63  59  88 CALM      30.04S
JUNEAU         CLOUDY    67  62  83 CALM      30.05S
$$

LSZ147-162-292300-
LAKE SUPERIOR

STATION/POSITION TIME  TEMP    WIND        PRES    WAVE
                       AIR SEA DIR/SP/G            HT/PER
                 (UTC) (F)     (DEG/KT/KT) (MB)    (FT/S)
W MID LAKE BUOY  2150   60 55  220/  8/  8 1015.0F   1/ 4
DEVILS ISLAND    2200   65     220/  7/  8 1015.2F
PORT WING        2100   71     250/  3/  6 1015.6F
SAXON HARBOR     2100   69        CALM     1015.6
$$

LMZ867-665-643>646-292300-
LAKE MICHIGAN

STATION/POSITION TIME  TEMP    WIND        PRES    WAVE
                       AIR SEA DIR/SP/G            HT/PER
                 (UTC) (F)     (DEG/KT/KT) (MB)    (FT/S)
CHAMBERS ISLAND  2100   68     180/  6/  8 1017.3F
S GREEN BAY BUOY 2200   64 64   60/  2/  4 1018.7S
N MID LAKE BUOY  2150   65 65  220/  8/ 10 1017.3R   0
NORTHPORT PIER   2100   67      20/  3/  3 1017.3F
SISTER BAY       2104   72     300/  8/  9   N/A
ALGOMA LAKESHORE 2114             CALM       N/A
SHEBOYGAN LAKESH 2200   60     150/  4/  4 1017.7F
PORT WASHINGTON  2100   56      40/  4/  5 1017.9F
ATWATER BUOY     2200   52 48  350/  6/  8 1018.1F
MILWAUKEE LAKESH 2200   58      20/ 10/ 10   N/A
S MID LAKE BUOY  2150   68 68  100/ 10/ 12 1016.0F   2/ 3
KENOSHA   LAKESH 2200   60     360/  7/  9 1016.3S
$$

TC  - TEMPERATURE IN CELSIUS
VSB - VISIBILITY IN STATUTE MILES
WCI - WIND CHILL INDEX
HX  - HEAT INDEX



USA.gov is the U.S. government's official web portal to all federal, state and local government web resources and services.